Flag for Hungary Weather past 2 weeks in Pécs, Hungary

Now
90 °F

Passing clouds.


Feels Like: 90 °F
Forecast: 67 / 92 °F
Wind: 2 mph from West

Location: Pecs / Pogany

Current Time: Aug 31, 2015 at 3:20:47 PM

Latest Report: Aug 31, 2015 at 2:00 PM


Visibility: 19 mi

Pressure: 30.02 "Hg

Humidity: 36%

Dew point: 60 °F

Location of PécsLocation

Historic Weather in Pécs — Graph

°F

Pécs temperature yesterday

Maximum temperature yesterday: 92 °F (at 4:00 PM)
Minimum temperature yesterday: 70 °F (at 5:00 AM)
Average temperature yesterday: 81 °F

Past Weeks' High & Low Weather Summary

 TemperatureHumidityPressure
High92 °F (Aug 30, 4:00 PM)94% (Aug 17, 5:00 AM)30.20 "Hg (Aug 17, 5:00 AM)
Low55 °F (Aug 24, 6:00 AM)31% (Aug 30, 5:00 PM)29.70 "Hg (Aug 16, 6:00 PM)
Average70 °F69%30.03 "Hg
* Reported Aug 16 2:00 PM — Aug 31 2:00 PM, Pécs, Weather by CustomWeather, © 2015

Note: Actual official high and low records may vary slightly from our data, if they occured in-between our weather recording intervals... More about our weather records

Advertising

Pécs weather history for previous 24 hours

 ConditionsComfort  
Time TempWeatherWind HumidityBarometerVisibility
2:00 PM
Mon, Aug 31
90 °FPassing clouds.2 mph36%30.02 "Hg19 mi
1:00 PM89 °FPassing clouds.2 mph38%30.03 "Hg19 mi
12:00 PM87 °FPassing clouds.3 mph41%30.04 "Hg19 mi
11:00 AM86 °FPassing clouds.1 mph44%30.05 "Hg19 mi
10:00 AM81 °FPassing clouds.1 mph54%30.05 "Hg19 mi
9:00 AM75 °FPassing clouds.1 mph60%30.06 "Hg19 mi
8:00 AM72 °FScattered clouds.1 mph64%30.06 "Hg25 mi
7:00 AM70 °FPassing clouds.1 mph60%30.06 "Hg22 mi
6:00 AM69 °FPassing clouds.1 mph62%30.06 "Hg19 mi
5:00 AM71 °FClear.1 mph57%30.06 "Hg19 mi
4:00 AM72 °FClear.2 mph59%30.07 "Hg25 mi
3:00 AM70 °FClear.1 mph63%30.09 "Hg25 mi
2:00 AM70 °FClear.2 mph65%30.09 "Hg25 mi
1:00 AM75 °FClear.1 mph56%30.10 "Hg25 mi
12:00 AM75 °FClear.1 mph57%30.10 "Hg25 mi
11:00 PM
Sun, Aug 30
76 °FClear.1 mph56%30.10 "Hg25 mi
10:00 PM79 °FPassing clouds.1 mph51%30.10 "Hg25 mi
9:00 PM82 °FPassing clouds.1 mph47%30.10 "Hg25 mi
8:00 PM82 °FPassing clouds.2 mph48%30.09 "Hg25 mi
7:00 PM87 °FSunny.2 mph45%30.09 "Hg25 mi
6:00 PM91 °FSunny.3 mph34%30.09 "Hg25 mi
5:00 PM92 °FSunny.3 mph31%30.10 "Hg25 mi
4:00 PM92 °FSunny.5 mph32%30.11 "Hg25 mi
3:00 PM92 °FSunny.5 mph34%30.13 "Hg25 mi
Weather by CustomWeather, © 2015

See weather overviewHow to use our weather pages